EW8570 Weather Reports


time (UTC)temp
F
wind
direction
speed
knots
gust
knots
rain 1hr
in
rain 24hr
in
rain mn
in
humidity
%
barometer
mb
20260906104200 67 252 0.0 0.0 0.00 0.01 0.00 89 1012.4
20260906103657 67 252 0.0 0.0 0.00 0.02 0.00 89 1012.3
20260906103157 67 255 0.0 0.0 0.00 0.02 0.00 89 1012.3
20260906102652 67 255 0.0 0.0 0.00 0.02 0.00 89 1012.2
20260906102159 67 255 0.0 0.0 0.00 0.02 0.00 89 1012.2
20260906101651 67 240 0.0 0.0 0.00 0.02 0.00 89 1012.2
20260906101156 67 281 0.0 0.0 0.00 0.02 0.00 89 1012.1
20260906100651 67 281 0.0 0.0 0.00 0.02 0.00 89 1012.0
20260906100156 67 281 0.0 0.0 0.00 0.02 0.00 89 1012.0
20260906095649 67 153 0.0 0.0 0.00 0.02 0.00 89 1011.8
20260906095446 67 132 0.0 0.0 0.00 0.02 0.00 88 1011.5
20260906095214 67 153 0.0 0.0 0.00 0.02 0.00 88 1011.7
20260906094521 68 45 0.0 0.9 0.00 0.02 0.00 88 1011.2
20260906094448 68 0 0.0 2.6 0.00 0.02 0.00 88 1011.4
20260906094415 68 0 0.9 2.6 0.00 0.02 0.00 88 1011.3
20260906094208 67 355 0.0 0.9 0.00 0.02 0.00 89 1011.4
20260906093741 67 355 0.0 0.9 0.00 0.02 0.00 88 1011.4
20260906093414 68 204 0.0 1.7 0.00 0.02 0.00 88 1011.3
20260906093204 67 355 0.0 1.7 0.00 0.02 0.00 88 1011.4
20260906092736 67 355 0.0 1.7 0.00 0.02 0.00 88 1011.3
20260906092306 67 303 0.9 1.7 0.00 0.02 0.00 89 1011.4
20260906091718 67 262 0.9 2.6 0.00 0.02 0.00 89 1011.4
20260906091245 67 262 0.0 2.6 0.00 0.02 0.00 88 1011.5
20260906091057 67 45 0.0 1.7 0.00 0.02 0.00 88 1011.2
20260906090701 67 204 0.0 0.9 0.00 0.02 0.00 88 1011.4
20260906090231 67 204 0.0 0.9 0.00 0.02 0.00 88 1011.3
20260906085233 68 204 0.9 2.6 0.00 0.02 0.00 88 1011.4
20260906084803 68 204 1.7 2.6 0.00 0.02 0.00 88 1011.4
20260906084336 68 205 0.9 2.6 0.00 0.02 0.00 88 1011.4
20260906082801 67 28 0.0 1.7 0.00 0.02 0.00 88 1011.2
20260906081701 68 45 0.0 1.7 0.00 0.02 0.00 88 1011.1
20260906080642 68 45 0.0 1.7 0.00 0.02 0.00 88 1011.3
20260906080133 68 45 0.9 2.6 0.00 0.02 0.00 88 1011.4
20260906075639 68 355 0.9 2.6 0.00 0.02 0.00 88 1011.5
20260906075139 68 342 0.9 1.7 0.00 0.02 0.00 88 1011.5
20260906074643 68 308 0.0 0.9 0.00 0.02 0.00 88 1011.4
20260906074139 68 308 0.0 1.7 0.00 0.02 0.00 88 1011.4
20260906073634 68 308 0.9 1.7 0.00 0.02 0.00 88 1011.2
20260906073559 69 259 0.0 1.7 0.00 0.02 0.00 87 1011.4
20260906073204 69 260 0.9 1.7 0.00 0.02 0.00 88 1011.4
20260906072130 69 168 0.0 0.0 0.00 0.02 0.00 87 1011.3
20260906071635 69 168 0.0 0.0 0.00 0.02 0.00 87 1011.4
20260906071134 69 168 0.0 0.0 0.00 0.02 0.00 87 1011.3
20260906070646 69 168 0.0 0.0 0.00 0.02 0.00 87 1011.4
20260906070130 69 168 0.0 0.0 0.00 0.02 0.00 87 1011.5
20260906065739 70 308 0.0 0.0 0.00 0.02 0.00 86 1011.9
20260906065638 69 168 0.0 0.0 0.00 0.02 0.00 87 1011.6
20260906065210 69 168 0.0 0.0 0.00 0.02 0.00 87 1011.6
20260906064914 69 168 0.0 0.0 0.00 0.02 0.00 87 1011.7
20260906064841 69 168 0.0 0.0 0.00 0.02 0.00 87 1011.8
20260906064642 69 168 0.0 0.0 0.00 0.02 0.00 87 1011.7
20260906064207 69 168 0.0 0.0 0.00 0.02 0.00 87 1011.7
20260906063216 69 168 0.0 0.0 0.00 0.02 0.00 87 1011.7
20260906062646 69 168 0.0 0.0 0.00 0.02 0.00 87 1011.8
20260906061651 69 168 0.0 0.0 0.00 0.02 0.00 86 1011.8
20260906060607 70 308 0.0 0.0 0.00 0.02 0.00 86 1011.9
20260906060109 70 308 0.0 0.0 0.00 0.02 0.00 86 1011.9
20260906055551 70 308 0.0 0.0 0.00 0.02 0.00 86 1011.8
20260906055339 71 242 0.9 2.6 0.00 0.02 0.00 86 1011.9
20260906055113 70 308 0.0 0.0 0.00 0.02 0.00 86 1011.8
20260906054644 70 308 0.0 0.0 0.00 0.02 0.00 86 1011.9
20260906054101 70 242 0.0 0.0 0.00 0.02 0.00 86 1011.9
20260906053619 70 242 0.0 0.0 0.00 0.02 0.00 86 1011.9
20260906053048 71 242 0.0 1.7 0.00 0.02 0.00 86 1011.9
20260906052009 71 245 0.9 2.6 0.00 0.02 0.00 86 1012.0
20260906051514 71 258 1.7 3.5 0.00 0.02 0.00 86 1012.1
20260906051451 71 324 0.9 1.7 0.00 0.02 0.00 85 1012.0
20260906051028 71 248 0.9 3.5 0.00 0.02 0.00 86 1012.0
20260906050530 71 253 0.9 1.7 0.00 0.02 0.00 85 1012.0
20260906045442 71 89 0.9 5.2 0.00 0.02 0.00 85 1012.0
20260906045340 71 103 0.9 3.5 0.00 0.02 0.00 85 1011.9
20260906045006 71 89 0.9 5.2 0.00 0.02 0.00 85 1012.1
20260906044125 72 338 0.0 3.5 0.00 0.02 0.00 85 1012.0
20260906043925 72 83 1.7 4.3 0.00 0.02 0.00 84 1011.9
20260906043450 72 329 2.6 6.1 0.00 0.02 0.00 84 1011.8
20260906043008 72 296 1.7 6.1 0.00 0.02 0.00 84 1011.8
20260906042411 72 318 1.7 3.5 0.00 0.02 0.00 85 1011.9
20260906041927 72 340 0.9 3.5 0.00 0.02 0.00 85 1011.9
20260906040903 72 48 0.0 0.9 0.00 0.02 0.00 84 1012.0
20260906040734 72 48 0.0 0.0 0.00 0.02 0.02 84 1012.0
20260906040406 72 48 0.0 0.0 0.00 0.02 0.00 84 1012.0
20260906035332 73 48 0.0 0.0 0.00 0.02 0.02 84 1012.0
20260906035237 73 48 0.0 1.7 0.00 0.02 0.02 84 1012.0
20260906035230 73 346 0.0 0.9 0.00 0.02 0.02 84 1012.3
20260906035159 73 346 0.0 1.7 0.00 0.02 0.02 84 1012.2
20260906035131 73 317 0.9 1.7 0.00 0.02 0.02 84 1012.3
20260906034851 73 48 0.0 0.0 0.00 0.02 0.02 84 1012.1
20260906034301 73 340 0.9 2.6 0.00 0.02 0.02 84 1012.3
20260906033844 73 48 0.9 2.6 0.00 0.02 0.02 84 1012.0
20260906033403 73 340 0.9 2.6 0.00 0.02 0.02 84 1012.1
20260906032929 73 346 0.0 0.9 0.00 0.02 0.02 84 1012.1
20260906031343 73 346 0.9 1.7 0.00 0.02 0.02 84 1012.2
20260906025722 73 315 0.9 2.6 0.00 0.02 0.02 84 1012.3
20260906025218 73 277 0.0 1.7 0.00 0.02 0.02 84 1012.3
20260906024751 73 250 0.0 0.0 0.00 0.02 0.02 84 1012.2
20260906024714 73 250 0.0 0.9 0.00 0.02 0.02 84 1012.3
20260906024240 73 250 0.0 0.9 0.00 0.02 0.02 84 1012.2
20260906023312 73 250 0.9 2.6 0.00 0.02 0.02 84 1012.2
20260906023157 73 250 0.0 0.0 0.00 0.02 0.02 84 1012.1
20260906022724 73 250 0.0 0.9 0.00 0.02 0.02 84 1012.1
20260906021649 74 250 0.9 2.6 0.00 0.02 0.02 84 1012.1
20260906021147 74 241 0.0 1.7 0.00 0.02 0.02 84 1012.1
20260906020933 74 317 0.0 1.7 0.00 0.02 0.02 83 1012.0
20260906020928 74 324 0.0 1.7 0.00 0.02 0.02 83 1011.9
20260906020702 74 257 0.9 2.6 0.00 0.02 0.02 84 1012.1
20260906020239 74 257 0.9 2.6 0.00 0.02 0.02 84 1012.1
20260906015754 74 269 0.9 1.7 0.00 0.02 0.02 83 1012.0
20260906014550 75 61 0.0 0.9 0.00 0.02 0.02 83 1011.8
20260906014446 75 61 0.9 2.6 0.00 0.02 0.02 82 1011.7
20260906014211 75 324 0.0 1.7 0.00 0.02 0.02 83 1011.9
20260906013736 75 61 0.0 0.0 0.00 0.02 0.02 83 1011.8
20260906012720 75 61 0.0 1.7 0.00 0.02 0.02 83 1011.6
20260906011648 76 29 0.0 2.6 0.00 0.02 0.02 81 1011.6
20260906011139 76 273 0.0 2.6 0.00 0.02 0.02 81 1011.8
20260906010638 76 273 0.9 2.6 0.00 0.02 0.02 81 1011.7
20260906010137 76 262 1.7 2.6 0.00 0.02 0.02 81 1011.6
20260906005637 76 273 1.7 2.6 0.00 0.02 0.02 81 1011.4
20260906005140 76 263 0.9 2.6 0.00 0.02 0.02 80 1011.4
20260906004640 77 276 0.9 2.6 0.00 0.02 0.02 80 1011.3
20260906004138 78 252 0.9 1.7 0.00 0.02 0.02 79 1011.3
20260906003652 78 350 0.0 0.9 0.00 0.02 0.02 76 1011.1
20260906003129 79 350 0.0 0.9 0.00 0.02 0.02 74 1011.1
20260906003027 80 350 0.0 1.7 0.00 0.02 0.02 72 1011.0
20260906002703 80 350 0.0 1.7 0.00 0.02 0.02 73 1011.0
20260906001629 81 350 0.0 0.9 0.00 0.02 0.02 71 1010.8
20260906001131 81 350 0.0 0.9 0.00 0.02 0.02 70 1010.7
20260906000627 81 350 0.0 0.9 0.00 0.02 0.02 70 1010.7
20260906000134 82 350 0.0 1.7 0.00 0.02 0.02 69 1010.6
20260905235637 82 350 0.0 1.7 0.00 0.02 0.02 68 1010.5
20260905235511 84 319 0.9 3.5 0.00 0.02 0.02 67 1010.6
20260905235154 82 350 0.9 3.5 0.00 0.02 0.02 68 1010.6
20260905234725 82 355 1.7 3.5 0.00 0.02 0.02 68 1010.5
20260905234142 82 300 1.7 3.5 0.00 0.02 0.02 68 1010.5
20260905233701 83 336 1.7 3.5 0.00 0.02 0.02 67 1010.5
20260905233222 83 51 1.7 3.5 0.00 0.02 0.02 67 1010.5
20260905232726 84 289 1.7 3.5 0.00 0.02 0.02 66 1010.6
20260905232630 83 11 0.9 3.5 0.00 0.02 0.02 67 1010.5
20260905232150 83 0 0.9 2.6 0.00 0.02 0.02 67 1010.4
20260905231708 83 326 1.7 3.5 0.00 0.02 0.02 67 1010.3
20260905231236 84 304 1.7 3.5 0.00 0.02 0.02 67 1010.4
20260905230754 84 315 1.7 3.5 0.00 0.02 0.02 67 1010.6
20260905225123 84 298 1.7 5.2 0.00 0.02 0.02 66 1010.5
20260905224617 85 248 1.7 6.1 0.00 0.02 0.02 65 1010.5
20260905224121 85 289 1.7 6.1 0.00 0.02 0.02 65 1010.5
20260905223618 85 261 1.7 3.5 0.00 0.02 0.02 64 1010.5
20260905223119 85 277 0.9 3.5 0.00 0.02 0.02 64 1010.4
20260905222609 85 297 0.9 3.5 0.00 0.02 0.02 64 1010.5
20260905222101 85 253 1.7 5.2 0.00 0.02 0.02 63 1010.5
20260905221846 87 257 1.7 6.1 0.00 0.02 0.02 61 1010.6
20260905221737 86 269 1.7 5.2 0.00 0.02 0.02 61 1010.7
20260905221603 85 245 1.7 5.2 0.00 0.02 0.02 62 1010.5
20260905221528 87 296 1.7 4.3 0.00 0.02 0.02 59 1010.7
20260905221111 86 277 1.7 5.2 0.00 0.02 0.02 63 1010.7
20260905220639 86 271 1.7 5.2 0.00 0.02 0.02 63 1010.7
20260905220203 86 279 1.7 4.3 0.00 0.02 0.02 61 1010.6
20260905215734 86 290 1.7 5.2 0.00 0.02 0.02 61 1010.6
20260905214717 87 231 1.7 4.3 0.00 0.02 0.02 61 1010.7
20260905214248 87 304 1.7 4.3 0.00 0.02 0.02 61 1010.7
20260905213113 87 305 1.7 5.2 0.00 0.02 0.02 61 1010.7
20260905212629 87 303 1.7 6.1 0.00 0.02 0.02 61 1010.6
20260905212009 84 269 1.7 3.5 0.00 0.02 0.02 64 1010.8
20260905211933 85 195 1.7 3.5 0.00 0.02 0.02 63 1010.7
20260905211609 86 330 1.7 4.3 0.00 0.02 0.02 60 1010.6
20260905211134 86 266 1.7 5.2 0.00 0.02 0.02 61 1010.7
20260905210647 86 321 1.7 5.2 0.00 0.02 0.02 61 1010.6
20260905210108 85 322 1.7 3.5 0.00 0.02 0.02 62 1010.6
20260905205620 85 209 0.9 3.5 0.00 0.02 0.02 64 1010.5
20260905205139 85 244 0.9 3.5 0.00 0.02 0.02 64 1010.6
20260905204115 84 217 1.7 3.5 0.00 0.02 0.02 64 1010.6
20260905203021 83 195 1.7 3.5 0.00 0.02 0.02 66 1010.8
20260905202813 83 230 0.9 2.6 0.00 0.02 0.02 66 1010.7
20260905202530 83 228 1.7 3.5 0.00 0.02 0.02 66 1010.8
20260905202049 83 222 0.9 2.6 0.00 0.02 0.02 65 1010.8
20260905200958 83 223 0.9 3.5 0.00 0.03 0.02 66 1010.8
20260905200551 82 227 1.7 3.5 0.00 0.03 0.02 66 1010.3
20260905200451 83 220 0.9 3.5 0.00 0.03 0.02 65 1010.7
20260905200018 83 211 0.9 3.5 0.00 0.03 0.02 65 1010.6
20260905195541 83 224 0.0 3.5 0.00 0.03 0.02 67 1010.6
20260905195309 79 223 0.9 2.6 0.00 0.03 0.02 73 1009.8
20260905195239 79 211 0.9 1.7 0.00 0.03 0.02 75 1009.9
20260905195201 78 216 1.7 7.0 0.00 0.03 0.02 77 1010.7
20260905195110 77 271 2.6 7.0 0.01 0.03 0.02 77 1011.0
20260905194938 82 203 0.0 0.0 0.00 0.03 0.02 67 1010.5
20260905194923 77 279 3.5 7.0 0.01 0.03 0.02 78 1011.0
20260905194501 82 216 0.0 3.5 0.00 0.03 0.02 66 1010.5
20260905194019 82 211 0.9 3.5 0.00 0.03 0.02 66 1010.3
20260905193007 82 221 0.9 3.5 0.00 0.03 0.02 69 1010.2
20260905192528 81 215 0.9 2.6 0.00 0.03 0.02 67 1010.2
20260905192057 80 238 0.0 2.6 0.00 0.03 0.02 70 1010.3
20260905191619 80 230 0.9 2.6 0.00 0.03 0.02 71 1010.1
20260905190031 78 311 0.9 3.5 0.00 0.03 0.02 75 1010.1
20260905185555 78 31 1.7 4.3 0.00 0.03 0.02 76 1010.3
20260905183410 76 313 3.5 7.0 0.01 0.03 0.02 80 1011.2
20260905182910 76 278 2.6 7.0 0.01 0.03 0.02 82 1011.0
20260905182420 76 63 0.9 2.6 0.01 0.03 0.02 82 1009.5
20260905181916 76 48 0.9 2.6 0.01 0.03 0.02 80 1009.7
20260905181413 77 98 0.9 2.6 0.01 0.03 0.02 79 1010.2
20260905180909 77 103 0.9 3.5 0.01 0.03 0.02 80 1010.4
20260905180415 78 84 0.9 3.5 0.01 0.03 0.02 78 1011.1
20260905175905 79 178 0.0 1.7 0.01 0.03 0.02 74 1011.3
20260905175410 80 272 0.9 4.3 0.01 0.03 0.02 73 1011.8
20260905174904 80 260 0.9 4.3 0.01 0.03 0.02 71 1012.1
20260905174408 80 355 1.7 5.2 0.00 0.02 0.01 69 1012.3
20260905173907 81 14 2.6 7.0 0.00 0.02 0.01 67 1012.5
20260905173407 82 58 2.6 7.0 0.00 0.02 0.01 63 1012.5
20260905172908 82 355 3.5 8.7 0.00 0.02 0.01 63 1012.9
20260905172411 83 306 4.3 11.3 0.00 0.02 0.01 63 1013.0
20260905171904 84 307 3.5 11.3 0.00 0.02 0.01 63 1013.5
20260905171403 85 293 3.5 10.4 0.00 0.02 0.01 66 1013.6
20260905170902 85 5 6.1 12.2 0.00 0.02 0.01 63 1013.5
20260905170407 87 318 7.0 15.6 0.00 0.02 0.01 61 1013.3
20260905165901 89 17 5.2 15.6 0.00 0.02 0.01 60 1013.5
20260905165401 91 351 3.5 9.6 0.00 0.02 0.01 61 1013.3
20260905164907 91 0 2.6 7.8 0.00 0.02 0.01 63 1012.9
20260905164358 91 350 2.6 7.8 0.00 0.02 0.01 61 1012.9
20260905163907 92 319 2.6 8.7 0.00 0.02 0.01 62 1012.9
20260905163357 92 309 2.6 8.7 0.00 0.02 0.01 62 1012.8
20260905162901 92 337 3.5 8.7 0.00 0.02 0.01 61 1012.9
20260905162403 92 242 2.6 8.7 0.00 0.02 0.01 60 1012.7
20260905161907 92 298 1.7 7.0 0.00 0.02 0.01 60 1012.6
20260905161359 91 275 1.7 6.1 0.00 0.02 0.01 63 1012.5
20260905160855 91 313 1.7 5.2 0.00 0.02 0.01 61 1012.7
20260905160359 91 16 2.6 7.0 0.00 0.02 0.01 62 1012.8
20260905155854 91 33 2.6 7.0 0.00 0.02 0.01 60 1012.9
20260905155433 90 350 1.7 5.2 0.00 0.02 0.01 63 1012.9
20260905155356 91 347 2.6 7.0 0.00 0.02 0.01 60 1012.7
20260905154906 91 5 1.7 7.0 0.00 0.02 0.01 62 1012.7
20260905154431 90 351 0.9 3.5 0.00 0.02 0.01 63 1012.8
20260905153349 89 219 2.6 5.2 0.00 0.02 0.01 62 1012.9
20260905152848 89 22 1.7 6.1 0.00 0.02 0.01 63 1013.0
20260905152353 89 101 0.9 6.1 0.00 0.02 0.01 65 1012.9
20260905151846 89 87 0.9 1.7 0.00 0.02 0.01 70 1012.9
20260905151729 88 112 1.7 4.3 0.00 0.02 0.01 69 1012.6
20260905151653 84 173 0.9 2.6 0.00 0.02 0.01 80 1012.7
20260905151357 89 355 0.9 5.2 0.00 0.02 0.01 72 1012.8
20260905150926 89 339 0.9 5.2 0.00 0.02 0.01 69 1012.7
20260905150307 83 209 0.9 3.5 0.00 0.02 0.01 80 1012.7
20260905150252 82 188 1.7 4.3 0.00 0.02 0.01 81 1012.7
20260905145858 87 179 1.7 5.2 0.00 0.02 0.01 71 1012.6
20260905145420 87 198 0.9 5.2 0.00 0.02 0.01 75 1012.7
20260905144948 85 170 0.9 4.3 0.00 0.02 0.01 78 1012.6
20260905143415 83 192 1.7 3.5 0.00 0.02 0.01 81 1012.6
20260905142338 82 214 1.7 4.3 0.00 0.02 0.01 82 1012.7
20260905141835 81 182 1.7 4.3 0.00 0.02 0.01 83 1012.7
20260905141339 80 180 1.7 4.3 0.00 0.02 0.01 84 1012.7
20260905140834 79 167 0.9 4.3 0.00 0.02 0.01 85 1012.6
20260905140458 76 197 0.0 3.5 0.00 0.02 0.01 87 1012.6
20260905140335 78 174 0.9 3.5 0.00 0.02 0.01 86 1012.6
20260905135858 77 161 0.0 3.5 0.00 0.02 0.01 87 1012.6
20260905134824 76 222 0.9 4.3 0.00 0.02 0.01 87 1012.6
20260905134320 76 163 0.9 4.3 0.00 0.02 0.01 88 1012.5
20260905133840 76 173 1.7 4.3 0.00 0.02 0.01 89 1012.6
20260905133527 72 169 0.0 1.7 0.00 0.02 0.01 91 1012.7
20260905133326 75 161 1.7 4.3 0.00 0.02 0.01 90 1012.7
20260905132851 75 200 0.9 4.3 0.00 0.02 0.01 91 1012.7
20260905132410 74 163 0.9 4.3 0.00 0.02 0.01 91 1012.7
20260905131836 73 156 0.0 2.6 0.00 0.02 0.01 92 1012.7
20260905131345 73 155 0.0 1.7 0.00 0.02 0.01 91 1012.8
20260905130318 72 34 0.0 0.9 0.00 0.02 0.01 91 1012.8
20260905125821 71 34 0.0 2.6 0.00 0.02 0.01 91 1012.9
20260905125317 71 34 0.9 2.6 0.00 0.02 0.01 91 1013.0
20260905124816 71 5 0.9 2.6 0.00 0.02 0.01 91 1013.0
20260905124315 71 30 0.9 2.6 0.00 0.02 0.01 91 1013.0
20260905123814 71 81 0.9 2.6 0.00 0.02 0.01 91 1013.0
20260905123310 70 50 0.9 2.6 0.00 0.02 0.01 91 1013.0
20260905122928 70 87 0.0 0.0 0.00 0.02 0.01 91 1013.2
20260905122810 70 34 0.0 2.6 0.00 0.02 0.01 91 1013.1
20260905122339 70 76 0.0 0.0 0.00 0.02 0.01 91 1013.1
20260905121253 70 150 0.0 0.0 0.00 0.02 0.01 91 1013.1
20260905120745 69 150 0.0 0.0 0.00 0.02 0.01 91 1013.1
20260905120241 69 150 0.0 0.0 0.00 0.02 0.01 91 1013.1
20260905120226 68 239 0.0 0.9 0.00 0.02 0.01 90 1012.8
20260905115807 69 81 0.0 0.0 0.00 0.02 0.01 90 1013.0
20260905115227 69 18 0.0 0.0 0.00 0.02 0.01 90 1012.9
20260905114749 68 239 0.0 0.9 0.00 0.02 0.01 90 1012.9
20260905113718 68 168 0.0 0.0 0.01 0.02 0.01 90 1012.8
20260905113201 67 188 0.0 0.0 0.01 0.02 0.01 90 1012.7
20260905112654 67 120 0.0 0.0 0.01 0.02 0.01 89 1012.6
20260905112156 67 120 0.0 0.0 0.01 0.02 0.01 89 1012.6
20260905111647 67 120 0.0 0.0 0.01 0.02 0.01 89 1012.6
20260905111147 67 177 0.0 0.0 0.01 0.02 0.01 89 1012.5
20260905110644 67 177 0.0 0.0 0.01 0.02 0.01 89 1012.5
20260905110146 68 30 0.0 0.0 0.01 0.02 0.01 89 1012.5
20260905105648 68 265 0.0 0.0 0.01 0.02 0.01 89 1012.4
20260905105142 68 265 0.0 0.0 0.01 0.02 0.01 89 1012.4
20260905104645 68 22 0.0 0.0 0.01 0.02 0.01 89 1012.5